Wind_Speed
26 26 27 27 28 28 29 29 30 31 32 33 34 35 35 35 36 37 38 39 40 41 42 43 43 42 41 40 39 37 37 37 37 37 36 37 38 41 42 43 42 43
28 28 28 29 29 30 30 31 31 32 33 35 36 37 37 37 38 39 40 41 42 43 44 44 44 44 43 41 40 38 38 38 38 37 38 40 42 45 45 44 44 45
29 29 30 30 31 31 32 32 33 34 35 36 38 39 39 40 40 40 41 42 44 45 45 45 45 44 43 42 40 39 38 38 38 39 41 43 46 47 47 46 47 49
31 31 32 32 32 33 33 34 34 36 36 38 39 40 40 41 42 42 42 44 46 47 46 46 46 45 43 42 41 41 40 39 40 42 44 45 47 48 48 49 50 51
33 33 33 34 34 34 35 35 36 37 38 39 40 41 42 43 43 44 44 45 47 48 48 48 48 47 45 44 43 42 42 42 44 45 47 48 49 50 51 52 52 52
35 35 35 35 36 36 36 37 38 38 39 41 42 43 44 45 45 46 46 46 48 49 50 50 49 49 47 45 44 44 44 45 46 48 49 50 52 53 55 54 52 52
37 37 37 37 38 38 38 39 39 40 41 42 43 44 46 47 47 48 48 49 49 50 52 51 50 50 49 47 46 45 46 47 48 50 51 53 54 56 57 54 51 52
39 39 39 39 40 40 41 41 41 42 43 44 45 46 48 49 49 49 50 50 51 52 53 53 52 51 50 49 48 47 48 49 50 51 53 54 56 58 57 54 52 53
41 41 41 42 42 43 43 43 43 44 45 45 47 48 50 50 50 51 51 51 52 54 55 54 53 52 51 51 50 49 49 50 51 53 54 56 57 58 58 55 54 56
44 44 44 44 45 45 45 45 45 45 46 47 48 50 51 52 52 53 53 53 54 55 56 56 54 54 53 52 51 50 51 52 53 54 56 57 58 59 59 57 56 58
46 46 47 47 47 48 48 48 47 47 48 48 49 51 53 54 54 55 56 56 55 56 58 57 56 55 54 53 53 52 53 54 55 56 57 58 59 60 59 57 57 60
49 49 49 49 50 50 50 50 49 49 51 51 51 51 54 56 57 57 58 58 57 58 58 59 57 55 54 54 53 53 54 55 56 57 58 59 61 61 58 55 58 61
51 52 52 52 52 52 53 53 52 52 53 54 54 53 55 57 58 59 59 60 60 59 60 60 58 56 56 54 54 55 55 55 57 59 60 61 62 60 56 56 61 62
53 54 54 54 54 55 55 55 54 54 55 56 56 56 56 57 58 60 61 62 62 61 61 61 60 58 57 56 56 56 55 56 59 61 62 62 62 59 57 60 62 61
55 56 56 56 57 57 57 57 57 57 56 57 58 59 59 59 59 60 62 63 64 63 62 61 60 59 58 57 56 53 53 58 62 63 64 63 62 61 61 62 61 61
57 58 58 58 59 59 60 60 59 59 59 59 60 61 61 61 60 61 62 63 65 64 63 61 61 60 59 57 54 51 55 61 64 65 65 63 63 64 64 63 62 63
59 59 60 60 61 61 62 62 62 61 61 61 61 62 62 62 62 61 61 62 64 65 65 63 62 61 60 58 55 55 59 63 65 66 65 65 66 67 65 65 65 64
61 61 61 62 63 63 64 64 64 64 64 64 64 64 64 64 63 62 62 62 63 65 65 64 63 62 62 60 60 60 63 64 65 66 66 67 68 68 67 67 66 64
62 62 63 64 64 65 65 65 66 66 66 66 66 66 66 65 65 64 64 63 63 63 64 65 64 64 63 62 62 63 64 65 66 67 67 68 69 68 67 66 64 62
64 65 65 66 66 67 67 67 68 69 69 68 68 68 68 67 67 67 66 65 64 63 64 64 65 65 65 64 64 65 66 66 68 68 69 70 70 69 67 66 63 62
66 67 67 67 68 68 69 69 70 71 71 70 70 70 70 70 69 69 68 67 66 65 64 65 65 66 66 65 66 67 67 68 69 70 71 71 71 70 68 65 63 64
67 68 69 69 69 70 71 72 72 73 73 73 72 72 72 72 71 70 69 68 67 67 66 66 66 67 67 67 67 68 69 69 70 71 71 71 71 70 66 63 64 68
68 69 70 71 71 72 73 74 75 75 75 75 74 74 73 73 73 72 70 69 69 69 68 67 67 68 69 69 69 69 70 71 71 71 72 72 71 68 65 64 67 70
69 70 71 73 74 74 75 77 77 78 77 77 76 75 74 74 73 72 72 71 70 70 70 69 69 69 70 71 72 72 72 72 72 72 72 73 71 68 66 67 70 72
71 72 73 74 76 77 78 80 80 80 80 79 77 76 75 73 72 71 72 72 71 71 71 71 70 71 72 73 74 74 73 73 73 72 72 73 72 70 70 72 73 75
73 73 74 75 77 79 80 82 82 83 82 80 79 77 74 72 71 71 71 72 72 72 72 72 72 72 73 74 75 75 75 74 73 73 73 73 73 72 74 76 77 78
Wind_Direction
310 312 314 316 318 320 322 323 323 322 322 321 320 320 322 323 324 325 326 327 329 330 330 328 326 325 323 320 319 319 317 316 317 315 314 315 318 319 319 318 317 316
308 310 313 314 316 318 320 321 321 320 320 319 318 318 320 321 322 323 325 326 328 328 329 328 326 325 323 321 318 319 319 318 317 316 316 317 318 319 318 318 317 317
306 309 310 312 313 315 317 318 318 317 317 316 315 317 319 319 320 322 324 325 326 327 327 326 324 324 323 321 319 319 319 319 317 317 317 317 318 318 317 317 318 318
305 307 308 309 311 312 313 314 315 314 314 314 314 315 317 318 319 321 322 323 324 325 326 324 323 323 323 321 318 317 317 317 316 316 316 317 318 318 317 315 316 317
303 304 306 307 308 309 311 311 311 311 311 312 313 314 316 317 318 319 320 322 323 323 324 324 323 323 323 321 318 316 316 315 315 315 316 317 318 317 316 314 315 317
301 302 303 304 306 307 308 308 308 308 309 310 312 314 315 316 317 318 318 320 321 322 323 323 323 323 322 321 319 316 315 315 315 316 316 317 317 317 316 314 315 317
298 300 301 302 303 304 305 305 306 307 308 310 312 313 314 315 316 316 317 319 320 321 322 323 322 322 322 320 319 317 316 316 316 316 317 317 318 318 317 315 315 317
296 298 300 300 300 301 302 303 304 306 307 310 311 312 313 313 314 315 316 317 319 320 321 322 322 321 321 320 319 318 317 316 316 316 317 318 319 319 318 315 314 316
295 297 298 298 298 299 300 301 303 305 307 309 311 311 312 312 313 313 314 316 318 319 320 321 321 321 320 320 319 318 317 315 315 316 317 318 319 320 318 315 314 315
294 295 296 296 296 297 298 300 302 304 306 307 309 310 310 310 312 312 314 315 317 318 320 320 321 320 320 319 318 317 316 315 315 316 317 318 319 319 317 314 313 315
293 293 294 294 295 296 297 299 302 303 304 305 307 308 309 310 311 312 313 314 316 318 319 320 320 319 319 318 317 316 316 315 316 316 318 318 318 318 315 313 314 316
291 292 292 293 294 296 297 299 300 302 302 304 306 308 309 310 311 312 313 314 316 318 318 319 319 318 318 317 316 316 315 315 316 317 318 318 318 318 315 313 315 315
289 290 291 292 294 295 296 297 299 301 303 304 306 308 309 309 310 311 312 313 315 317 318 317 317 317 317 317 316 315 314 314 316 317 317 317 318 317 314 312 315 315
288 289 290 292 293 294 295 297 299 301 303 305 306 307 308 309 310 311 312 313 315 316 317 317 317 317 317 317 317 315 313 314 316 316 316 317 318 317 314 313 315 314
287 288 290 291 292 294 295 297 299 300 302 304 305 306 307 308 310 310 311 312 313 314 315 316 316 316 316 317 315 312 312 314 314 315 316 317 317 316 315 315 315 315
286 288 289 291 292 293 295 296 298 300 302 303 304 305 306 308 308 309 310 311 312 313 314 315 314 314 314 315 313 309 310 313 314 315 316 316 316 317 316 316 316 316
285 287 288 289 291 293 295 296 298 299 301 302 303 304 305 305 306 307 309 310 312 312 313 313 313 312 313 314 312 310 311 313 314 315 315 316 317 317 316 316 316 315
284 286 287 289 291 293 294 296 298 299 300 301 302 302 302 303 305 306 308 310 311 311 312 312 311 311 312 312 312 312 312 313 314 315 315 316 316 317 317 317 315 314
284 286 287 289 291 293 294 296 297 298 299 300 300 301 302 303 305 307 308 309 310 310 310 310 310 310 311 311 312 312 313 314 315 315 316 316 317 317 318 317 316 313
284 286 287 289 291 292 294 295 296 297 298 299 300 301 302 304 305 307 308 309 309 309 308 309 309 309 310 311 312 313 314 315 315 315 316 317 318 318 317 317 316 313
284 286 287 289 290 292 293 294 295 296 297 299 300 301 303 304 305 307 308 308 308 308 308 309 309 309 310 311 312 313 314 315 316 316 316 317 318 318 317 317 315 314
284 286 288 289 290 292 293 294 295 296 297 299 300 301 303 304 305 306 307 307 308 308 308 309 309 309 310 311 312 314 315 315 316 316 316 317 317 317 316 315 313 313
285 287 288 290 291 292 293 294 295 296 297 298 300 301 302 303 305 306 306 307 308 308 309 309 310 310 311 312 313 314 315 315 315 316 316 316 315 314 312 310 310 312
287 288 289 290 292 293 293 294 295 296 297 298 299 301 302 303 305 306 306 308 308 309 310 310 311 311 311 312 313 314 314 314 315 315 315 314 314 312 308 307 308 311
288 288 289 291 292 293 294 295 296 296 297 298 299 300 301 302 304 305 306 308 308 309 310 311 311 311 311 312 313 313 313 314 314 314 313 313 312 309 307 306 308 310
288 288 290 291 293 294 295 295 296 296 297 298 298 299 300 302 304 305 306 307 308 309 310 310 311 311 311 311 311 311 312 313 313 312 312 311 310 308 307 307 308 309
Height
10973 10972 10971 10970 10969 10968 10967 10966 10965 10963 10962 10960 10958 10957 10956 10955 10953 10951 10949 10948 10946 10944 10942 10939 10937 10935 10933 10930 10928 10926 10924 10921 10920 10918 10916 10914 10912 10911 10909 10906 10905 10903
10970 10970 10968 10967 10966 10965 10964 10963 10962 10960 10959 10957 10955 10954 10953 10952 10950 10948 10946 10944 10942 10940 10938 10936 10933 10931 10929 10926 10924 10922 10920 10918 10916 10914 10911 10909 10907 10905 10903 10901 10899 10897
10968 10967 10966 10965 10964 10963 10962 10961 10959 10957 10956 10954 10952 10951 10950 10948 10947 10946 10943 10941 10938 10936 10935 10933 10930 10928 10925 10922 10920 10918 10916 10914 10911 10909 10907 10905 10902 10900 10897 10895 10894 10892
10965 10964 10963 10962 10961 10960 10959 10958 10956 10954 10953 10951 10949 10947 10947 10945 10944 10943 10941 10938 10935 10933 10931 10929 10926 10924 10922 10919 10916 10914 10912 10910 10907 10905 10903 10901 10898 10896 10893 10890 10888 10886
10962 10961 10960 10959 10958 10957 10956 10955 10953 10951 10949 10947 10946 10944 10943 10942 10940 10939 10937 10935 10932 10929 10927 10925 10922 10920 10918 10915 10912 10909 10907 10905 10903 10901 10898 10896 10893 10891 10888 10885 10883 10880
10959 10958 10958 10956 10955 10954 10953 10952 10950 10948 10946 10944 10943 10941 10939 10938 10937 10934 10933 10931 10929 10926 10923 10921 10918 10915 10913 10911 10908 10905 10903 10900 10898 10895 10893 10891 10888 10885 10882 10879 10876 10872
10956 10955 10954 10953 10952 10950 10949 10948 10946 10944 10943 10941 10940 10938 10936 10934 10933 10931 10928 10927 10925 10922 10919 10916 10914 10911 10908 10906 10904 10901 10898 10895 10893 10890 10888 10885 10882 10879 10875 10872 10870 10866
10952 10951 10951 10949 10948 10946 10945 10944 10943 10941 10939 10938 10936 10934 10932 10930 10929 10927 10925 10923 10920 10918 10915 10912 10910 10907 10904 10901 10899 10897 10893 10890 10887 10884 10882 10879 10876 10873 10869 10866 10864 10862
10948 10947 10946 10945 10943 10942 10941 10940 10939 10937 10935 10934 10933 10931 10928 10926 10925 10923 10921 10919 10917 10914 10910 10907 10905 10902 10899 10897 10895 10892 10889 10886 10883 10880 10877 10874 10870 10867 10863 10860 10858 10856
10944 10943 10942 10940 10939 10937 10936 10935 10935 10933 10931 10930 10929 10927 10924 10923 10921 10918 10916 10915 10913 10909 10906 10903 10900 10897 10895 10892 10889 10887 10885 10881 10878 10875 10872 10869 10865 10861 10858 10855 10852 10850
10939 10938 10937 10935 10934 10932 10931 10930 10930 10929 10927 10927 10926 10924 10920 10918 10916 10914 10911 10909 10908 10905 10901 10898 10895 10892 10889 10887 10884 10882 10879 10876 10873 10870 10867 10863 10860 10856 10852 10849 10846 10843
10934 10933 10931 10930 10929 10927 10925 10925 10926 10924 10922 10922 10922 10920 10916 10913 10910 10908 10906 10903 10902 10900 10896 10893 10890 10888 10885 10883 10880 10877 10874 10871 10867 10864 10861 10858 10855 10851 10847 10843 10841 10838
10929 10927 10926 10925 10923 10922 10920 10920 10920 10919 10917 10916 10916 10915 10913 10909 10906 10903 10900 10897 10896 10895 10891 10887 10885 10883 10880 10878 10875 10872 10869 10865 10862 10859 10856 10853 10849 10846 10843 10839 10836 10832
10923 10922 10921 10919 10918 10916 10914 10914 10915 10914 10913 10910 10909 10908 10907 10905 10902 10898 10895 10891 10889 10888 10886 10882 10879 10876 10874 10873 10870 10866 10862 10860 10856 10853 10850 10847 10843 10840 10838 10834 10831 10827
10918 10916 10915 10914 10912 10910 10909 10908 10908 10908 10908 10906 10904 10902 10901 10900 10898 10894 10890 10887 10883 10882 10881 10878 10874 10871 10869 10868 10864 10860 10857 10855 10851 10847 10844 10841 10837 10834 10832 10828 10825 10821
10912 10911 10910 10908 10906 10905 10904 10903 10903 10902 10902 10902 10899 10896 10895 10894 10893 10891 10888 10883 10878 10875 10875 10873 10869 10866 10865 10865 10861 10856 10853 10850 10845 10841 10838 10834 10831 10827 10824 10821 10818 10814
10906 10906 10904 10903 10901 10900 10898 10897 10896 10896 10896 10895 10894 10892 10890 10888 10888 10886 10884 10880 10875 10870 10868 10867 10864 10860 10859 10860 10857 10853 10848 10844 10839 10834 10831 10828 10824 10819 10816 10813 10810 10806
10901 10900 10899 10897 10896 10894 10892 10891 10890 10889 10889 10888 10887 10886 10884 10883 10882 10880 10879 10877 10873 10867 10862 10860 10858 10855 10853 10852 10850 10847 10842 10838 10833 10828 10824 10821 10817 10812 10808 10805 10802 10798
10895 10895 10893 10891 10890 10889 10887 10886 10884 10883 10882 10882 10881 10879 10878 10876 10874 10873 10872 10871 10869 10864 10859 10855 10851 10848 10847 10845 10842 10839 10836 10831 10826 10821 10817 10813 10810 10806 10801 10798 10794 10790
10889 10888 10887 10886 10885 10883 10881 10880 10878 10876 10875 10875 10874 10872 10870 10868 10867 10865 10863 10862 10861 10859 10855 10851 10846 10841 10840 10839 10835 10831 10828 10824 10818 10814 10810 10806 10803 10799 10795 10791 10786 10782
10884 10882 10880 10880 10879 10877 10875 10873 10871 10869 10868 10867 10867 10865 10863 10861 10860 10858 10856 10853 10851 10850 10848 10844 10840 10835 10832 10831 10828 10823 10820 10816 10811 10806 10802 10798 10795 10791 10788 10784 10779 10774
10878 10876 10875 10873 10872 10871 10869 10867 10865 10863 10861 10860 10859 10859 10857 10855 10852 10851 10849 10847 10844 10841 10840 10837 10833 10828 10824 10822 10820 10817 10813 10809 10804 10798 10794 10791 10788 10784 10780 10775 10771 10767
10872 10871 10869 10867 10866 10865 10863 10860 10858 10856 10854 10853 10852 10851 10850 10847 10844 10842 10840 10839 10836 10833 10831 10829 10825 10820 10815 10812 10811 10810 10807 10802 10797 10792 10787 10783 10781 10778 10773 10767 10763 10760
10867 10865 10862 10860 10858 10857 10855 10852 10850 10849 10847 10846 10845 10844 10842 10840 10837 10833 10830 10829 10827 10824 10821 10819 10816 10812 10807 10803 10801 10801 10798 10795 10790 10785 10780 10775 10772 10770 10766 10760 10756 10752
10860 10859 10856 10854 10851 10848 10846 10843 10841 10840 10838 10838 10837 10836 10835 10833 10830 10826 10822 10820 10818 10815 10812 10810 10807 10802 10798 10795 10792 10791 10789 10786 10782 10778 10773 10769 10765 10762 10757 10752 10748 10744
10852 10851 10850 10848 10844 10840 10837 10834 10831 10829 10828 10829 10829 10827 10826 10825 10822 10819 10816 10813 10810 10807 10804 10801 10798 10794 10790 10786 10784 10782 10780 10778 10775 10770 10766 10762 10759 10754 10749 10744 10740 10737